Погода в Усть-Турке

Россия / Пермский край     57°12′58″N   56°35′40″E
темп.,
°C
ветер,
м/с
пор.,
м/с
влажн.,
%
обл.,
%
осадки,
мм/ч
давл.,
гПа
погр.,
м
13 апреля, вт
вт1323:00+4св11855 0.0 104110
02:00+2вюв01895 0.0 104010
05:00+2вюв119024 0.0 104110
08:00+1ююв12100100 0.0 104185
11:00+3ююв1110099 0.0 1040120
14:00+5ююв2210098 0.0 1038147
17:00+8ююв239493 0.0 1037193
20:00+6ююз379793 0.0 1035127
14 апреля, ср
ср1423:00+5ююз359895 0.0 103487
02:00+6юз369999 0.0 1033158
05:00+7юз4595100 0.0 1033144
08:00+7юз3595100 0.0 1033242
11:00+10юз348493 0.0 1032378
14:00+15юз466336 0.0 1030998
17:00+17юз46538 0.0 10291151
20:00+12ююз357427 0.0 102875
15 апреля, чт
чт1523:00+10юз338363 0.0 102735
02:00+9ююз338679 0.0 102637
05:00+7ююз3487100 0.0 102661
08:00+8ююз310825 0.0 1024267
11:00+13юз58575 0.0 1023660
14:00+16юз68495 0.0 10211182
17:00+17зюз68440 0.0 10191501
20:00+13юз34630 0.0 101859
16 апреля, пт
пт1623:00+10зюз357299 0.0 101879
02:00+10сз3680100 0.1 1017172
05:00+7с51085100 0.3 1019484
08:00+5с598098 0.6 1021524
11:00+7ссв687099 0.6 1022938
14:00+6св6770100 0.0 1024870
17:00+9св454527 0.0 10231645
20:00+6с594768 0.0 1024301
17 апреля, сб
сб1723:00+4с5115694 0.0 1026331
02:00+1с37654 0.0 1026145
05:000с34660 0.0 102680
08:00+2ссз35542 0.0 1026203
11:00+6ссз46404 0.0 10261546
14:00+8ссз4638100 0.0 10242234
17:00+8сз5743100 0.0 10231848
20:00+5сз3658100 0.0 1022224